Time,TemperatureF,DewpointF,PressureIn,WindDirection,WindDirectionDegrees,WindSpeedMPH,WindSpeedGustMPH,Humidity,HourlyPrecipIn,Conditions,Clouds,dailyrainin,SoftwareType,DateUTC
2013-11-04 00:01:00,75.6,62.1,30.02,ESE,123,2.0,11.0,63,0.00,,,0.00,meteohub,2013-11-04 05:01:00,
2013-11-04 00:04:00,75.6,61.7,30.02,ENE,78,1.0,11.0,62,0.00,,,0.00,meteohub,2013-11-04 05:04:00,
2013-11-04 00:09:00,75.6,61.7,30.02,NNW,344,0.0,11.0,62,0.00,,,0.00,meteohub,2013-11-04 05:09:00,
2013-11-04 00:14:00,75.6,61.7,30.02,NE,55,1.0,11.0,62,0.00,,,0.00,meteohub,2013-11-04 05:14:00,
2013-11-04 00:19:00,75.6,62.6,30.02,East,98,2.0,11.0,64,0.00,,,0.00,meteohub,2013-11-04 05:19:00,
2013-11-04 00:24:00,75.6,62.1,30.02,NNW,348,2.0,10.0,63,0.00,,,0.00,meteohub,2013-11-04 05:24:00,
2013-11-04 00:29:00,75.4,61.5,30.03,NE,56,4.0,10.0,62,0.00,,,0.00,meteohub,2013-11-04 05:29:00,
2013-11-04 00:34:00,75.4,61.5,30.03,ESE,121,3.0,10.0,62,0.00,,,0.00,meteohub,2013-11-04 05:34:00,
2013-11-04 00:39:00,75.4,61.9,30.02,ENE,74,5.0,9.0,63,0.00,,,0.00,meteohub,2013-11-04 05:39:00,
2013-11-04 00:44:00,75.4,61.9,30.02,ENE,77,4.0,9.0,63,0.00,,,0.00,meteohub,2013-11-04 05:44:00,
2013-11-04 00:49:00,75.4,61.5,30.02,South,177,1.0,9.0,62,0.00,,,0.00,meteohub,2013-11-04 05:49:00,
2013-11-04 00:54:00,75.4,61.9,30.02,ENE,76,2.0,9.0,63,0.00,,,0.00,meteohub,2013-11-04 05:54:00,
2013-11-04 00:59:00,75.4,62.4,30.02,NE,48,0.0,9.0,64,0.00,,,0.00,meteohub,2013-11-04 05:59:00,
2013-11-04 01:04:00,75.4,62.8,30.02,ENE,76,3.0,8.0,65,0.00,,,0.00,meteohub,2013-11-04 06:04:00,
2013-11-04 01:09:00,75.4,62.8,30.02,NNW,342,0.0,13.0,65,0.00,,,0.00,meteohub,2013-11-04 06:09:00,
2013-11-04 01:14:00,75.2,62.2,30.02,NE,35,1.0,13.0,64,0.00,,,0.00,meteohub,2013-11-04 06:14:00,
2013-11-04 01:19:00,75.0,62.1,30.02,NE,54,8.0,13.0,64,0.00,,,0.00,meteohub,2013-11-04 06:19:00,
2013-11-04 01:24:00,75.0,62.4,30.02,East,96,8.0,10.0,65,0.00,,,0.00,meteohub,2013-11-04 06:24:00,
2013-11-04 01:29:00,75.0,62.4,30.02,NE,41,0.0,11.0,65,0.00,,,0.00,meteohub,2013-11-04 06:29:00,
2013-11-04 01:34:00,74.8,62.2,30.02,NE,46,0.0,11.0,65,0.00,,,0.00,meteohub,2013-11-04 06:34:00,
2013-11-04 01:39:00,74.8,61.3,30.02,NNE,30,6.0,11.0,63,0.00,,,0.00,meteohub,2013-11-04 06:39:00,
2013-11-04 01:44:00,74.7,61.7,30.02,NNW,337,0.0,9.0,64,0.00,,,0.00,meteohub,2013-11-04 06:44:00,
2013-11-04 01:50:00,74.7,61.7,30.02,North,5,0.0,9.0,64,0.00,,,0.00,meteohub,2013-11-04 06:50:00,
2013-11-04 01:55:00,74.7,61.7,30.02,ENE,57,2.0,9.0,64,0.00,,,0.00,meteohub,2013-11-04 06:55:00,
2013-11-04 02:00:00,74.7,62.1,30.02,East,80,0.0,9.0,65,0.00,,,0.00,meteohub,2013-11-04 07:00:00,
2013-11-04 02:05:00,74.7,61.7,30.02,SE,132,0.0,9.0,64,0.00,,,0.00,meteohub,2013-11-04 07:05:00,
2013-11-04 02:10:00,74.8,61.9,30.02,NNW,348,1.0,8.0,64,0.00,,,0.00,meteohub,2013-11-04 07:10:00,
2013-11-04 02:15:00,74.8,61.3,30.02,NNE,33,1.0,7.0,63,0.00,,,0.00,meteohub,2013-11-04 07:15:00,
2013-11-04 02:20:00,74.7,60.8,30.02,NE,56,4.0,9.0,62,0.00,,,0.00,meteohub,2013-11-04 07:20:00,
2013-11-04 02:25:00,74.7,60.8,30.01,ENE,74,2.0,9.0,62,0.00,,,0.00,meteohub,2013-11-04 07:25:00,
2013-11-04 02:30:00,74.7,60.3,30.02,NE,47,1.0,9.0,61,0.00,,,0.00,meteohub,2013-11-04 07:30:00,
2013-11-04 02:35:00,74.8,60.4,30.02,ENE,57,7.0,11.0,61,0.00,,,0.00,meteohub,2013-11-04 07:35:00,
2013-11-04 02:40:00,74.8,61.3,30.02,NNE,24,2.0,11.0,63,0.00,,,0.00,meteohub,2013-11-04 07:40:00,
2013-11-04 02:45:00,74.8,61.3,30.02,NNE,28,1.0,11.0,63,0.00,,,0.00,meteohub,2013-11-04 07:45:00,
2013-11-04 02:50:00,74.8,61.9,30.02,NNE,26,0.0,9.0,64,0.00,,,0.00,meteohub,2013-11-04 07:50:00,
2013-11-04 02:55:00,74.7,61.2,30.01,NE,42,3.0,10.0,63,0.00,,,0.00,meteohub,2013-11-04 07:55:00,
2013-11-04 03:00:00,74.7,61.2,30.01,North,5,5.0,10.0,63,0.00,,,0.00,meteohub,2013-11-04 08:00:00,
2013-11-04 03:05:00,74.5,61.9,30.01,NNE,25,0.0,10.0,65,0.00,,,0.00,meteohub,2013-11-04 08:05:00,
2013-11-04 03:10:00,74.5,61.5,30.01,NNE,24,2.0,10.0,64,0.00,,,0.00,meteohub,2013-11-04 08:10:00,
2013-11-04 03:15:00,74.5,61.5,30.01,ESE,123,2.0,10.0,64,0.00,,,0.00,meteohub,2013-11-04 08:15:00,
2013-11-04 03:20:00,74.5,61.9,30.01,North,9,0.0,11.0,65,0.00,,,0.00,meteohub,2013-11-04 08:20:00,
2013-11-04 03:25:00,74.5,61.5,30.01,North,355,2.0,11.0,64,0.00,,,0.00,meteohub,2013-11-04 08:25:00,
2013-11-04 03:30:00,74.3,61.3,30.01,East,99,3.0,11.0,64,0.00,,,0.00,meteohub,2013-11-04 08:30:00,
2013-11-04 03:35:00,74.5,61.0,30.01,NE,34,3.0,10.0,63,0.00,,,0.00,meteohub,2013-11-04 08:35:00,
2013-11-04 03:40:00,74.3,61.3,30.01,North,355,2.0,10.0,64,0.00,,,0.00,meteohub,2013-11-04 08:40:00,
2013-11-04 03:45:00,74.1,61.2,30.01,NE,34,3.0,8.0,64,0.00,,,0.00,meteohub,2013-11-04 08:45:00,
2013-11-04 03:50:00,74.3,61.3,30.01,ENE,70,3.0,9.0,64,0.00,,,0.00,meteohub,2013-11-04 08:50:00,
2013-11-04 03:55:00,74.5,61.0,30.01,NE,44,0.0,10.0,63,0.00,,,0.00,meteohub,2013-11-04 08:55:00,
2013-11-04 04:00:00,74.3,61.3,30.01,NW,306,2.0,13.0,64,0.00,,,0.00,meteohub,2013-11-04 09:00:00,
2013-11-04 04:05:00,74.5,61.5,30.01,East,79,0.0,13.0,64,0.00,,,0.00,meteohub,2013-11-04 09:05:00,
2013-11-04 04:10:00,74.5,61.0,30.01,NE,39,0.0,13.0,63,0.00,,,0.00,meteohub,2013-11-04 09:10:00,
2013-11-04 04:15:00,74.5,61.5,30.01,NE,55,1.0,9.0,64,0.00,,,0.00,meteohub,2013-11-04 09:15:00,
2013-11-04 04:20:00,74.5,61.0,30.01,NNE,29,2.0,10.0,63,0.00,,,0.00,meteohub,2013-11-04 09:20:00,
2013-11-04 04:25:00,74.5,61.5,30.01,NE,34,0.0,10.0,64,0.00,,,0.00,meteohub,2013-11-04 09:25:00,
2013-11-04 04:30:00,74.5,61.0,30.01,NE,36,4.0,10.0,63,0.00,,,0.00,meteohub,2013-11-04 09:30:00,
2013-11-04 04:35:00,74.7,61.7,30.01,NE,36,1.0,9.0,64,0.00,,,0.00,meteohub,2013-11-04 09:35:00,
2013-11-04 04:40:00,74.7,61.7,30.01,NE,37,0.0,10.0,64,0.00,,,0.00,meteohub,2013-11-04 09:40:00,
2013-11-04 04:45:00,74.7,61.2,30.01,ENE,74,1.0,10.0,63,0.00,,,0.00,meteohub,2013-11-04 09:45:00,
2013-11-04 04:50:00,74.7,60.8,30.01,NE,34,5.0,10.0,62,0.00,,,0.00,meteohub,2013-11-04 09:50:00,
2013-11-04 04:55:00,74.7,60.8,30.02,ENE,63,1.0,9.0,62,0.00,,,0.00,meteohub,2013-11-04 09:55:00,
2013-11-04 05:00:00,74.8,61.3,30.01,ENE,74,7.0,9.0,63,0.00,,,0.00,meteohub,2013-11-04 10:00:00,
2013-11-04 05:05:00,74.7,60.8,30.01,NNE,18,2.0,9.0,62,0.00,,,0.00,meteohub,2013-11-04 10:05:00,
2013-11-04 05:10:00,74.7,60.8,30.02,ENE,63,4.0,9.0,62,0.00,,,0.00,meteohub,2013-11-04 10:10:00,
2013-11-04 05:15:00,74.7,60.8,30.02,NNE,30,5.0,9.0,62,0.00,,,0.00,meteohub,2013-11-04 10:15:00,
2013-11-04 05:20:00,74.7,60.8,30.02,ENE,69,0.0,9.0,62,0.00,,,0.00,meteohub,2013-11-04 10:20:00,
2013-11-04 05:25:00,74.7,60.8,30.02,NE,47,1.0,9.0,62,0.00,,,0.00,meteohub,2013-11-04 10:25:00,
2013-11-04 05:30:00,74.5,60.6,30.02,NE,36,1.0,8.0,62,0.00,,,0.00,meteohub,2013-11-04 10:30:00,
2013-11-04 05:35:00,74.5,60.6,30.02,NE,41,8.0,8.0,62,0.00,,,0.00,meteohub,2013-11-04 10:35:00,
2013-11-04 05:40:00,74.7,61.2,30.02,NE,34,2.0,10.0,63,0.00,,,0.00,meteohub,2013-11-04 10:40:00,
2013-11-04 05:45:00,74.5,61.0,30.02,NE,51,1.0,10.0,63,0.00,,,0.00,meteohub,2013-11-04 10:45:00,
2013-11-04 05:50:00,74.3,60.4,30.03,NE,46,2.0,10.0,62,0.00,,,0.00,meteohub,2013-11-04 10:50:00,
2013-11-04 05:55:00,74.3,59.9,30.03,NE,51,0.0,7.0,61,0.00,,,0.00,meteohub,2013-11-04 10:55:00,
2013-11-04 06:00:00,74.3,59.5,30.03,NNE,32,2.0,7.0,60,0.00,,,0.00,meteohub,2013-11-04 11:00:00,
2013-11-04 06:05:00,74.1,59.7,30.03,NE,40,4.0,7.0,61,0.00,,,0.00,meteohub,2013-11-04 11:05:00,
2013-11-04 06:10:00,74.1,59.4,30.03,NE,53,0.0,9.0,60,0.00,,,0.00,meteohub,2013-11-04 11:10:00,
2013-11-04 06:15:00,74.1,59.7,30.03,NE,47,0.0,9.0,61,0.00,,,0.00,meteohub,2013-11-04 11:15:00,
2013-11-04 06:20:00,74.1,59.7,30.03,NNE,32,0.0,9.0,61,0.00,,,0.00,meteohub,2013-11-04 11:20:00,
2013-11-04 06:22:00,74.1,60.3,30.03,ENE,78,0.0,9.0,62,0.00,,,0.00,meteohub,2013-11-04 11:22:00,
2013-11-04 06:27:00,74.1,60.3,30.03,NE,42,1.0,9.0,62,0.00,,,0.00,meteohub,2013-11-04 11:27:00,
2013-11-04 06:32:00,74.3,59.5,30.04,NNE,26,1.0,8.0,60,0.00,,,0.00,meteohub,2013-11-04 11:32:00,
2013-11-04 06:37:00,74.5,59.7,30.04,SE,144,0.0,8.0,60,0.00,,,0.00,meteohub,2013-11-04 11:37:00,
2013-11-04 06:42:00,74.5,60.1,30.04,East,94,0.0,8.0,61,0.00,,,0.00,meteohub,2013-11-04 11:42:00,
2013-11-04 06:47:00,74.3,59.0,30.04,NW,313,1.0,7.0,59,0.00,,,0.00,meteohub,2013-11-04 11:47:00,
2013-11-04 06:52:00,74.3,58.6,30.04,NE,34,1.0,8.0,58,0.00,,,0.00,meteohub,2013-11-04 11:52:00,
2013-11-04 06:57:00,74.3,59.0,30.04,East,81,0.0,8.0,59,0.00,,,0.00,meteohub,2013-11-04 11:57:00,
2013-11-04 07:02:00,74.5,59.7,30.04,NE,51,3.0,11.0,60,0.00,,,0.00,meteohub,2013-11-04 12:02:00,
2013-11-04 07:07:00,74.7,58.8,30.05,NE,56,1.0,11.0,58,0.00,,,0.00,meteohub,2013-11-04 12:07:00,
2013-11-04 07:12:00,74.7,58.5,30.05,NE,36,0.0,11.0,57,0.00,,,0.00,meteohub,2013-11-04 12:12:00,
2013-11-04 07:17:00,74.8,58.1,30.05,NNE,32,0.0,10.0,56,0.00,,,0.00,meteohub,2013-11-04 12:17:00,
2013-11-04 07:22:00,74.8,58.1,30.05,ENE,68,3.0,10.0,56,0.00,,,0.00,meteohub,2013-11-04 12:22:00,
2013-11-04 07:27:00,74.8,57.6,30.05,NNE,24,4.0,10.0,55,0.00,,,0.00,meteohub,2013-11-04 12:27:00,
2013-11-04 07:32:00,75.0,57.7,30.05,North,0,1.0,9.0,55,0.00,,,0.00,meteohub,2013-11-04 12:32:00,
2013-11-04 07:37:00,75.2,56.8,30.06,NNE,28,4.0,9.0,53,0.00,,,0.00,meteohub,2013-11-04 12:37:00,
2013-11-04 07:42:00,75.4,57.0,30.06,NE,43,6.0,11.0,53,0.00,,,0.00,meteohub,2013-11-04 12:42:00,
2013-11-04 07:47:00,75.7,57.4,30.06,NNE,21,1.0,11.0,53,0.00,,,0.00,meteohub,2013-11-04 12:47:00,
2013-11-04 07:52:00,76.1,58.3,30.06,NE,44,1.0,11.0,54,0.00,,,0.00,meteohub,2013-11-04 12:52:00,
2013-11-04 07:57:00,76.6,57.7,30.06,NE,34,0.0,11.0,52,0.00,,,0.00,meteohub,2013-11-04 12:57:00,
2013-11-04 08:02:00,76.8,57.4,30.06,NE,42,0.0,7.0,51,0.00,,,0.00,meteohub,2013-11-04 13:02:00,
2013-11-04 08:07:00,77.4,57.2,30.06,NE,44,6.0,6.0,50,0.00,,,0.00,meteohub,2013-11-04 13:07:00,
2013-11-04 08:12:00,77.5,57.9,30.06,ENE,58,0.0,6.0,51,0.00,,,0.00,meteohub,2013-11-04 13:12:00,
2013-11-04 08:17:00,77.9,58.3,30.06,NE,49,4.0,7.0,51,0.00,,,0.00,meteohub,2013-11-04 13:17:00,
2013-11-04 08:22:00,78.1,59.5,30.06,ENE,67,0.0,7.0,53,0.00,,,0.00,meteohub,2013-11-04 13:22:00,
2013-11-04 08:27:00,78.6,59.5,30.06,NNE,32,1.0,9.0,52,0.00,,,0.00,meteohub,2013-11-04 13:27:00,
2013-11-04 08:32:00,79.0,59.4,30.06,East,100,7.0,9.0,51,0.00,,,0.00,meteohub,2013-11-04 13:32:00,
2013-11-04 08:37:00,79.2,60.1,30.06,NNE,30,3.0,9.0,52,0.00,,,0.00,meteohub,2013-11-04 13:37:00,
2013-11-04 08:42:00,79.5,61.9,30.06,NNE,26,3.0,8.0,55,0.00,,,0.00,meteohub,2013-11-04 13:42:00,
2013-11-04 08:47:00,79.9,61.2,30.07,North,350,5.0,10.0,53,0.00,,,0.00,meteohub,2013-11-04 13:47:00,
2013-11-04 08:52:00,79.3,60.8,30.07,East,80,0.0,10.0,53,0.00,,,0.00,meteohub,2013-11-04 13:52:00,
2013-11-04 08:57:00,78.4,61.0,30.07,NNW,336,2.0,10.0,55,0.00,,,0.00,meteohub,2013-11-04 13:57:00,
2013-11-04 09:02:00,77.7,61.3,30.07,NE,51,0.0,8.0,57,0.00,,,0.00,meteohub,2013-11-04 14:02:00,
2013-11-04 09:07:00,77.5,61.2,30.07,East,84,1.0,8.0,57,0.00,,,0.00,meteohub,2013-11-04 14:07:00,
2013-11-04 09:12:00,77.5,62.1,30.07,NNE,26,0.0,8.0,59,0.00,,,0.00,meteohub,2013-11-04 14:12:00,
2013-11-04 09:17:00,77.9,63.3,30.07,NE,46,3.0,7.0,61,0.00,,,0.00,meteohub,2013-11-04 14:17:00,
2013-11-04 09:22:00,78.1,63.1,30.07,WNW,284,1.0,8.0,60,0.00,,,0.00,meteohub,2013-11-04 14:22:00,
2013-11-04 09:27:00,77.7,63.7,30.07,NE,54,0.0,11.0,62,0.00,,,0.00,meteohub,2013-11-04 14:27:00,
2013-11-04 09:32:00,77.4,63.9,30.07,East,94,1.0,11.0,63,0.00,,,0.00,meteohub,2013-11-04 14:32:00,
2013-11-04 09:37:00,77.2,64.0,30.07,NE,38,5.0,11.0,64,0.00,,,0.00,meteohub,2013-11-04 14:37:00,
2013-11-04 09:42:00,77.0,63.9,30.07,North,10,0.0,11.0,64,0.00,,,0.00,meteohub,2013-11-04 14:42:00,
2013-11-04 09:47:00,76.8,64.9,30.07,East,101,1.0,11.0,67,0.00,,,0.00,meteohub,2013-11-04 14:47:00,
2013-11-04 09:52:00,76.8,64.6,30.07,North,0,6.0,10.0,66,0.00,,,0.00,meteohub,2013-11-04 14:52:00,
2013-11-04 09:57:00,77.2,64.9,30.07,NE,44,0.0,10.0,66,0.00,,,0.00,meteohub,2013-11-04 14:57:00,
2013-11-04 10:02:00,77.2,64.6,30.07,NNE,13,1.0,10.0,65,0.00,,,0.00,meteohub,2013-11-04 15:02:00,
2013-11-04 10:07:00,76.8,64.6,30.07,East,101,6.0,10.0,66,0.00,,,0.00,meteohub,2013-11-04 15:07:00,
2013-11-04 10:12:00,76.3,64.6,30.07,NE,40,7.0,12.0,67,0.00,,,0.00,meteohub,2013-11-04 15:12:00,
2013-11-04 10:17:00,75.7,64.0,30.08,ENE,69,1.0,12.0,67,0.00,,,0.00,meteohub,2013-11-04 15:17:00,
2013-11-04 10:22:00,75.6,65.1,30.08,ENE,74,0.0,12.0,70,0.00,,,0.00,meteohub,2013-11-04 15:22:00,
2013-11-04 10:27:00,75.4,66.6,30.07,NNE,22,1.0,11.0,74,0.00,,,0.00,meteohub,2013-11-04 15:27:00,
2013-11-04 10:32:00,75.0,66.2,30.07,NNE,18,6.0,11.0,74,0.00,,,0.00,meteohub,2013-11-04 15:32:00,
2013-11-04 10:37:00,75.6,64.8,30.07,ENE,67,2.0,12.0,69,0.00,,,0.00,meteohub,2013-11-04 15:37:00,
2013-11-04 10:42:00,76.3,64.6,30.07,ENE,74,4.0,12.0,67,0.00,,,0.00,meteohub,2013-11-04 15:42:00,
2013-11-04 10:47:00,76.5,65.1,30.07,NE,38,7.0,12.0,68,0.00,,,0.00,meteohub,2013-11-04 15:47:00,
2013-11-04 10:52:00,75.9,65.5,30.08,NE,42,1.0,11.0,70,0.00,,,0.00,meteohub,2013-11-04 15:52:00,
2013-11-04 10:57:00,74.7,66.2,30.08,NNE,27,7.0,10.0,75,0.00,,,0.00,meteohub,2013-11-04 15:57:00,
2013-11-04 11:02:00,72.9,67.1,30.07,North,5,0.0,12.0,82,0.04,,,0.04,meteohub,2013-11-04 16:02:00,
2013-11-04 11:07:00,72.3,67.3,30.06,ENE,58,1.0,12.0,84,0.04,,,0.04,meteohub,2013-11-04 16:07:00,
2013-11-04 11:12:00,72.3,67.6,30.06,NE,36,0.0,12.0,85,0.04,,,0.04,meteohub,2013-11-04 16:12:00,
2013-11-04 11:17:00,72.7,67.6,30.06,SSE,154,1.0,9.0,84,0.04,,,0.04,meteohub,2013-11-04 16:17:00,
2013-11-04 11:22:00,73.0,67.6,30.06,NNE,26,4.0,11.0,83,0.05,,,0.05,meteohub,2013-11-04 16:22:00,
2013-11-04 11:27:00,73.8,68.0,30.06,NNE,21,4.0,12.0,82,0.05,,,0.05,meteohub,2013-11-04 16:27:00,
2013-11-04 11:32:00,74.5,67.8,30.06,NNE,20,2.0,12.0,80,0.05,,,0.05,meteohub,2013-11-04 16:32:00,
2013-11-04 11:37:00,75.2,68.2,30.06,East,98,2.0,12.0,79,0.05,,,0.05,meteohub,2013-11-04 16:37:00,
2013-11-04 11:42:00,76.6,68.2,30.05,NNE,21,5.0,12.0,75,0.05,,,0.05,meteohub,2013-11-04 16:42:00,
2013-11-04 11:47:00,77.5,68.2,30.05,NE,35,2.0,11.0,73,0.05,,,0.05,meteohub,2013-11-04 16:47:00,
2013-11-04 11:52:00,78.4,67.8,30.05,NE,35,4.0,11.0,70,0.05,,,0.05,meteohub,2013-11-04 16:52:00,
2013-11-04 11:57:00,78.6,68.0,30.05,NW,322,2.0,11.0,70,0.03,,,0.05,meteohub,2013-11-04 16:57:00,
2013-11-04 12:02:00,78.3,67.3,30.05,ENE,77,1.0,10.0,69,0.01,,,0.05,meteohub,2013-11-04 17:02:00,
2013-11-04 12:07:00,78.6,67.6,30.05,WSW,237,3.0,10.0,69,0.01,,,0.05,meteohub,2013-11-04 17:07:00,
2013-11-04 12:12:00,79.2,67.6,30.04,ESE,106,3.0,10.0,68,0.01,,,0.05,meteohub,2013-11-04 17:12:00,
2013-11-04 12:17:00,79.3,68.4,30.04,East,86,8.0,10.0,69,0.01,,,0.05,meteohub,2013-11-04 17:17:00,
2013-11-04 12:22:00,79.5,67.1,30.04,North,0,6.0,13.0,66,0.00,,,0.05,meteohub,2013-11-04 17:22:00,
2013-11-04 12:27:00,80.1,68.2,30.04,NE,34,1.0,13.0,67,0.00,,,0.05,meteohub,2013-11-04 17:27:00,
2013-11-04 12:32:00,80.2,67.8,30.04,NE,53,8.0,13.0,66,0.00,,,0.05,meteohub,2013-11-04 17:32:00,
2013-11-04 12:37:00,79.5,67.6,30.04,NE,45,3.0,13.0,67,0.00,,,0.05,meteohub,2013-11-04 17:37:00,
2013-11-04 12:42:00,79.0,67.5,30.04,NNE,20,10.0,12.0,68,0.00,,,0.05,meteohub,2013-11-04 17:42:00,
2013-11-04 12:47:00,78.8,67.8,30.03,ESE,115,3.0,12.0,69,0.00,,,0.05,meteohub,2013-11-04 17:47:00,
2013-11-04 12:52:00,79.2,67.3,30.03,North,5,4.0,13.0,67,0.00,,,0.05,meteohub,2013-11-04 17:52:00,
2013-11-04 12:57:00,79.3,67.5,30.03,East,94,2.0,14.0,67,0.00,,,0.05,meteohub,2013-11-04 17:57:00,
2013-11-04 13:02:00,79.3,67.5,30.03,NE,43,2.0,14.0,67,0.00,,,0.05,meteohub,2013-11-04 18:02:00,
2013-11-04 13:07:00,79.2,67.6,30.03,NE,38,4.0,14.0,68,0.00,,,0.05,meteohub,2013-11-04 18:07:00,
2013-11-04 13:12:00,78.8,67.3,30.03,ESE,107,3.0,10.0,68,0.00,,,0.05,meteohub,2013-11-04 18:12:00,
2013-11-04 13:17:00,78.6,67.6,30.03,East,84,2.0,10.0,69,0.00,,,0.05,meteohub,2013-11-04 18:17:00,
2013-11-04 13:22:00,78.6,67.6,30.03,NNE,15,3.0,13.0,69,0.00,,,0.05,meteohub,2013-11-04 18:22:00,
2013-11-04 13:27:00,78.4,67.8,30.03,East,85,3.0,13.0,70,0.00,,,0.05,meteohub,2013-11-04 18:27:00,
2013-11-04 13:32:00,78.4,67.5,30.02,SE,146,2.0,13.0,69,0.00,,,0.05,meteohub,2013-11-04 18:32:00,
2013-11-04 13:37:00,78.3,67.6,30.02,North,11,2.0,13.0,70,0.00,,,0.05,meteohub,2013-11-04 18:37:00,
2013-11-04 13:42:00,78.3,67.6,30.02,ESE,117,3.0,13.0,70,0.00,,,0.05,meteohub,2013-11-04 18:42:00,
2013-11-04 13:47:00,78.3,67.6,30.02,NE,39,8.0,15.0,70,0.00,,,0.05,meteohub,2013-11-04 18:47:00,
2013-11-04 13:52:00,77.7,68.4,30.02,NNE,28,9.0,15.0,73,0.00,,,0.05,meteohub,2013-11-04 18:52:00,
2013-11-04 13:57:00,77.0,68.5,30.02,ESE,108,8.0,15.0,75,0.00,,,0.05,meteohub,2013-11-04 18:57:00,
2013-11-04 14:02:00,76.8,67.8,30.02,NNE,19,4.0,13.0,74,0.00,,,0.05,meteohub,2013-11-04 19:02:00,
2013-11-04 14:07:00,77.2,68.2,30.02,North,9,7.0,11.0,74,0.00,,,0.05,meteohub,2013-11-04 19:07:00,
2013-11-04 14:12:00,77.5,67.5,30.02,NNE,16,2.0,11.0,71,0.00,,,0.05,meteohub,2013-11-04 19:12:00,
2013-11-04 14:17:00,78.4,68.2,30.02,NE,42,2.0,11.0,71,0.00,,,0.05,meteohub,2013-11-04 19:17:00,
2013-11-04 14:22:00,79.0,68.4,30.01,East,96,2.0,14.0,70,0.00,,,0.05,meteohub,2013-11-04 19:22:00,
2013-11-04 14:27:00,79.3,68.7,30.02,NNE,13,1.0,14.0,70,0.00,,,0.05,meteohub,2013-11-04 19:27:00,
2013-11-04 14:32:00,79.3,68.7,30.02,ESE,119,2.0,14.0,70,0.00,,,0.05,meteohub,2013-11-04 19:32:00,
2013-11-04 14:37:00,79.2,67.3,30.02,North,0,2.0,12.0,67,0.00,,,0.05,meteohub,2013-11-04 19:37:00,
2013-11-04 14:42:00,79.0,67.5,30.02,NNE,30,8.0,13.0,68,0.00,,,0.05,meteohub,2013-11-04 19:42:00,
2013-11-04 14:47:00,78.4,66.9,30.02,North,350,5.0,13.0,68,0.00,,,0.05,meteohub,2013-11-04 19:47:00,
2013-11-04 14:52:00,78.3,67.6,30.02,SSE,154,0.0,13.0,70,0.00,,,0.05,meteohub,2013-11-04 19:52:00,
2013-11-04 14:57:00,78.1,67.1,30.02,WNW,286,3.0,12.0,69,0.00,,,0.05,meteohub,2013-11-04 19:57:00,
2013-11-04 15:02:00,77.9,67.3,30.02,NE,46,4.0,12.0,70,0.00,,,0.05,meteohub,2013-11-04 20:02:00,
2013-11-04 15:07:00,77.9,66.9,30.02,ENE,69,3.0,10.0,69,0.00,,,0.05,meteohub,2013-11-04 20:07:00,
2013-11-04 15:12:00,77.7,66.7,30.03,ENE,74,3.0,12.0,69,0.00,,,0.05,meteohub,2013-11-04 20:12:00,
2013-11-04 15:17:00,77.5,66.9,30.03,NNE,13,2.0,14.0,70,0.00,,,0.05,meteohub,2013-11-04 20:17:00,
2013-11-04 15:22:00,77.4,67.3,30.03,ESE,106,1.0,14.0,71,0.00,,,0.05,meteohub,2013-11-04 20:22:00,
2013-11-04 15:27:00,77.4,67.3,30.03,ESE,115,5.0,14.0,71,0.00,,,0.05,meteohub,2013-11-04 20:27:00,
2013-11-04 15:32:00,77.2,66.6,30.03,SSE,150,2.0,13.0,70,0.00,,,0.05,meteohub,2013-11-04 20:32:00,
2013-11-04 15:37:00,77.2,67.1,30.03,ENE,59,3.0,13.0,71,0.00,,,0.05,meteohub,2013-11-04 20:37:00,
2013-11-04 15:42:00,77.4,66.7,30.03,East,81,2.0,14.0,70,0.00,,,0.05,meteohub,2013-11-04 20:42:00,
2013-11-04 15:47:00,77.4,67.6,30.03,NNE,19,2.0,14.0,72,0.00,,,0.05,meteohub,2013-11-04 20:47:00,
2013-11-04 15:52:00,77.4,67.6,30.03,NE,56,2.0,14.0,72,0.00,,,0.05,meteohub,2013-11-04 20:52:00,
2013-11-04 15:57:00,77.5,67.5,30.03,East,87,10.0,12.0,71,0.00,,,0.05,meteohub,2013-11-04 20:57:00,
2013-11-04 16:02:00,77.5,67.5,30.03,NNE,30,7.0,12.0,71,0.00,,,0.05,meteohub,2013-11-04 21:02:00,
2013-11-04 16:07:00,77.5,67.5,30.03,NNE,24,10.0,13.0,71,0.00,,,0.05,meteohub,2013-11-04 21:07:00,
2013-11-04 16:12:00,77.4,67.3,30.03,NE,39,4.0,13.0,71,0.00,,,0.05,meteohub,2013-11-04 21:12:00,
2013-11-04 16:17:00,77.2,66.6,30.03,ESE,116,3.0,14.0,70,0.00,,,0.05,meteohub,2013-11-04 21:17:00,
2013-11-04 16:22:00,77.2,67.8,30.03,ENE,75,4.0,14.0,73,0.00,,,0.05,meteohub,2013-11-04 21:22:00,
2013-11-04 16:27:00,76.8,67.8,30.03,SSE,149,4.0,18.0,74,0.00,,,0.05,meteohub,2013-11-04 21:27:00,
2013-11-04 16:32:00,76.6,68.2,30.04,East,94,2.0,18.0,75,0.00,,,0.05,meteohub,2013-11-04 21:32:00,
2013-11-04 16:37:00,76.5,67.6,30.04,NNW,348,2.0,18.0,74,0.00,,,0.05,meteohub,2013-11-04 21:37:00,
2013-11-04 16:42:00,76.5,66.4,30.04,East,96,8.0,13.0,71,0.00,,,0.05,meteohub,2013-11-04 21:42:00,
2013-11-04 16:47:00,76.6,66.6,30.04,North,0,3.0,15.0,71,0.00,,,0.05,meteohub,2013-11-04 21:47:00,
2013-11-04 16:52:00,76.6,66.9,30.04,SE,130,4.0,15.0,72,0.00,,,0.05,meteohub,2013-11-04 21:52:00,
2013-11-04 16:57:00,76.8,67.5,30.03,ENE,61,0.0,15.0,73,0.00,,,0.05,meteohub,2013-11-04 21:57:00,
2013-11-04 17:02:00,76.6,66.9,30.03,ESE,102,7.0,13.0,72,0.00,,,0.05,meteohub,2013-11-04 22:02:00,
2013-11-04 17:07:00,76.6,66.9,30.04,East,100,9.0,13.0,72,0.00,,,0.05,meteohub,2013-11-04 22:07:00,
2013-11-04 17:12:00,76.6,66.9,30.03,East,94,5.0,14.0,72,0.00,,,0.05,meteohub,2013-11-04 22:12:00,
2013-11-04 17:17:00,76.5,66.4,30.03,East,82,1.0,14.0,71,0.00,,,0.05,meteohub,2013-11-04 22:17:00,
2013-11-04 17:22:00,76.5,66.0,30.03,SE,126,4.0,14.0,70,0.00,,,0.05,meteohub,2013-11-04 22:22:00,
2013-11-04 17:27:00,76.5,66.0,30.03,NNE,26,3.0,13.0,70,0.00,,,0.05,meteohub,2013-11-04 22:27:00,
2013-11-04 17:32:00,76.6,66.2,30.03,NNE,29,7.0,13.0,70,0.00,,,0.05,meteohub,2013-11-04 22:32:00,
2013-11-04 17:37:00,76.6,66.9,30.03,North,5,4.0,14.0,72,0.00,,,0.05,meteohub,2013-11-04 22:37:00,
2013-11-04 17:42:00,76.6,66.9,30.03,ENE,77,1.0,15.0,72,0.00,,,0.05,meteohub,2013-11-04 22:42:00,
2013-11-04 17:47:00,76.6,66.2,30.03,ENE,67,3.0,15.0,70,0.00,,,0.05,meteohub,2013-11-04 22:47:00,
2013-11-04 17:52:00,76.6,66.6,30.04,NNE,32,8.0,15.0,71,0.00,,,0.05,meteohub,2013-11-04 22:52:00,
2013-11-04 17:57:00,76.6,66.9,30.04,NE,52,6.0,13.0,72,0.00,,,0.05,meteohub,2013-11-04 22:57:00,
2013-11-04 18:02:00,76.6,66.2,30.04,WSW,244,3.0,13.0,70,0.00,,,0.05,meteohub,2013-11-04 23:02:00,
2013-11-04 18:07:00,76.6,66.2,30.04,East,85,2.0,12.0,70,0.00,,,0.05,meteohub,2013-11-04 23:07:00,
2013-11-04 18:12:00,76.6,66.9,30.04,East,88,3.0,12.0,72,0.00,,,0.05,meteohub,2013-11-04 23:12:00,
2013-11-04 18:17:00,76.6,66.6,30.04,East,85,1.0,12.0,71,0.00,,,0.05,meteohub,2013-11-04 23:17:00,
2013-11-04 18:22:00,76.6,65.7,30.04,SE,127,4.0,12.0,69,0.00,,,0.05,meteohub,2013-11-04 23:22:00,
2013-11-04 18:27:00,76.6,65.7,30.04,ENE,65,4.0,13.0,69,0.00,,,0.05,meteohub,2013-11-04 23:27:00,
2013-11-04 18:32:00,76.6,66.2,30.04,NE,52,5.0,13.0,70,0.00,,,0.05,meteohub,2013-11-04 23:32:00,
2013-11-04 18:37:00,76.6,65.7,30.04,NNE,12,3.0,15.0,69,0.00,,,0.05,meteohub,2013-11-04 23:37:00,
2013-11-04 18:42:00,76.6,66.2,30.04,NE,49,2.0,15.0,70,0.00,,,0.05,meteohub,2013-11-04 23:42:00,
2013-11-04 18:47:00,76.6,66.2,30.05,NNW,348,1.0,15.0,70,0.00,,,0.05,meteohub,2013-11-04 23:47:00,
2013-11-04 18:52:00,76.6,66.2,30.05,East,79,3.0,10.0,70,0.00,,,0.05,meteohub,2013-11-04 23:52:00,
2013-11-04 18:57:00,76.6,66.2,30.05,ENE,78,0.0,10.0,70,0.00,,,0.05,meteohub,2013-11-04 23:57:00,
2013-11-04 19:02:00,76.6,65.7,30.05,NNW,333,6.0,10.0,69,0.00,,,0.05,meteohub,2013-11-05 00:02:00,
2013-11-04 19:07:00,76.6,65.7,30.05,ENE,75,11.0,12.0,69,0.00,,,0.00,meteohub,2013-11-05 00:07:00,
2013-11-04 19:12:00,76.6,65.3,30.06,NE,49,9.0,12.0,68,0.00,,,0.00,meteohub,2013-11-05 00:12:00,
2013-11-04 19:18:00,76.6,65.3,30.06,NW,307,2.0,12.0,68,0.00,,,0.00,meteohub,2013-11-05 00:18:00,
2013-11-04 19:23:00,76.6,65.3,30.06,NE,39,9.0,11.0,68,0.00,,,0.00,meteohub,2013-11-05 00:23:00,
2013-11-04 19:28:00,76.6,66.2,30.06,ENE,73,1.0,14.0,70,0.00,,,0.00,meteohub,2013-11-05 00:28:00,
2013-11-04 19:33:00,76.6,66.2,30.06,ESE,115,4.0,14.0,70,0.00,,,0.00,meteohub,2013-11-05 00:33:00,
2013-11-04 19:38:00,76.6,66.2,30.06,NNE,17,3.0,14.0,70,0.00,,,0.00,meteohub,2013-11-05 00:38:00,
2013-11-04 19:43:00,76.5,66.0,30.06,NNE,16,1.0,13.0,70,0.00,,,0.00,meteohub,2013-11-05 00:43:00,
2013-11-04 19:48:00,76.5,66.4,30.06,NE,40,2.0,13.0,71,0.00,,,0.00,meteohub,2013-11-05 00:48:00,
2013-11-04 19:53:00,76.5,66.4,30.06,NE,40,4.0,12.0,71,0.00,,,0.00,meteohub,2013-11-05 00:53:00,
2013-11-04 19:58:00,76.3,65.8,30.06,NW,322,2.0,12.0,70,0.00,,,0.00,meteohub,2013-11-05 00:58:00,
2013-11-04 20:03:00,76.3,65.8,30.06,ESE,105,5.0,14.0,70,0.00,,,0.00,meteohub,2013-11-05 01:03:00,
2013-11-04 20:08:00,76.5,66.0,30.06,NE,51,3.0,14.0,70,0.00,,,0.00,meteohub,2013-11-05 01:08:00,
2013-11-04 20:13:00,76.5,66.0,30.06,East,88,9.0,14.0,70,0.00,,,0.00,meteohub,2013-11-05 01:13:00,
2013-11-04 20:18:00,76.6,66.2,30.06,NNE,26,6.0,11.0,70,0.00,,,0.00,meteohub,2013-11-05 01:18:00,
2013-11-04 20:23:00,76.6,66.6,30.06,NE,41,6.0,10.0,71,0.00,,,0.00,meteohub,2013-11-05 01:23:00,
2013-11-04 20:28:00,76.6,66.6,30.07,WSW,244,3.0,9.0,71,0.00,,,0.00,meteohub,2013-11-05 01:28:00,
2013-11-04 20:33:00,76.6,66.6,30.07,NNE,13,1.0,12.0,71,0.00,,,0.00,meteohub,2013-11-05 01:33:00,
2013-11-04 20:38:00,76.6,66.2,30.06,ENE,59,2.0,12.0,70,0.00,,,0.00,meteohub,2013-11-05 01:38:00,
2013-11-04 20:43:00,76.6,66.6,30.07,North,0,2.0,12.0,71,0.00,,,0.00,meteohub,2013-11-05 01:43:00,
2013-11-04 20:48:00,76.6,66.9,30.07,East,83,1.0,9.0,72,0.00,,,0.00,meteohub,2013-11-05 01:48:00,
2013-11-04 20:53:00,76.6,66.2,30.07,NE,36,3.0,10.0,70,0.00,,,0.00,meteohub,2013-11-05 01:53:00,
2013-11-04 20:58:00,76.6,65.7,30.07,NE,49,1.0,10.0,69,0.00,,,0.00,meteohub,2013-11-05 01:58:00,
2013-11-04 21:03:00,76.6,65.7,30.07,East,95,7.0,10.0,69,0.00,,,0.00,meteohub,2013-11-05 02:03:00,
2013-11-04 21:08:00,76.6,65.7,30.08,South,173,0.0,10.0,69,0.00,,,0.00,meteohub,2013-11-05 02:08:00,
2013-11-04 21:13:00,76.8,66.7,30.07,North,355,3.0,10.0,71,0.00,,,0.00,meteohub,2013-11-05 02:13:00,
2013-11-04 21:18:00,76.8,66.7,30.07,SE,140,2.0,10.0,71,0.00,,,0.00,meteohub,2013-11-05 02:18:00,
2013-11-04 21:23:00,76.6,65.3,30.07,NNW,346,3.0,10.0,68,0.00,,,0.00,meteohub,2013-11-05 02:23:00,
2013-11-04 21:28:00,76.6,65.3,30.07,NE,46,4.0,12.0,68,0.00,,,0.00,meteohub,2013-11-05 02:28:00,
2013-11-04 21:33:00,76.6,64.9,30.07,East,98,5.0,12.0,67,0.00,,,0.00,meteohub,2013-11-05 02:33:00,
2013-11-04 21:38:00,76.6,65.3,30.07,North,9,4.0,12.0,68,0.00,,,0.00,meteohub,2013-11-05 02:38:00,
2013-11-04 21:43:00,76.6,65.7,30.07,NNE,19,1.0,12.0,69,0.00,,,0.00,meteohub,2013-11-05 02:43:00,
2013-11-04 21:48:00,76.6,66.2,30.07,East,99,2.0,10.0,70,0.00,,,0.00,meteohub,2013-11-05 02:48:00,
2013-11-04 21:53:00,76.6,66.9,30.08,East,98,8.0,13.0,72,0.00,,,0.00,meteohub,2013-11-05 02:53:00,
2013-11-04 21:58:00,76.6,66.9,30.07,ENE,65,3.0,13.0,72,0.00,,,0.00,meteohub,2013-11-05 02:58:00,
2013-11-04 22:03:00,76.6,66.6,30.07,ESE,117,2.0,13.0,71,0.00,,,0.00,meteohub,2013-11-05 03:03:00,
2013-11-04 22:08:00,76.6,66.9,30.07,ENE,63,7.0,13.0,72,0.00,,,0.00,meteohub,2013-11-05 03:08:00,
2013-11-04 22:13:00,76.6,66.6,30.07,NNE,23,2.0,12.0,71,0.00,,,0.00,meteohub,2013-11-05 03:13:00,
2013-11-04 22:18:00,76.6,66.2,30.07,ENE,65,2.0,11.0,70,0.00,,,0.00,meteohub,2013-11-05 03:18:00,
2013-11-04 22:23:00,76.6,65.3,30.07,NNE,22,1.0,12.0,68,0.00,,,0.00,meteohub,2013-11-05 03:23:00,
2013-11-04 22:28:00,76.5,66.4,30.06,East,92,3.0,14.0,71,0.00,,,0.00,meteohub,2013-11-05 03:28:00,
2013-11-04 22:33:00,76.5,66.7,30.07,ENE,62,1.0,15.0,72,0.00,,,0.00,meteohub,2013-11-05 03:33:00,
2013-11-04 22:38:00,76.3,66.6,30.07,NE,55,1.0,15.0,72,0.00,,,0.00,meteohub,2013-11-05 03:38:00,
2013-11-04 22:43:00,76.3,66.2,30.07,East,96,2.0,15.0,71,0.00,,,0.00,meteohub,2013-11-05 03:43:00,
2013-11-04 22:48:00,76.3,66.2,30.06,NNE,24,6.0,10.0,71,0.00,,,0.00,meteohub,2013-11-05 03:48:00,
2013-11-04 22:53:00,76.5,66.7,30.07,NNE,23,2.0,16.0,72,0.00,,,0.00,meteohub,2013-11-05 03:53:00,
2013-11-04 22:58:00,76.5,66.7,30.07,NE,44,7.0,16.0,72,0.00,,,0.00,meteohub,2013-11-05 03:58:00,
2013-11-04 23:03:00,76.6,66.9,30.07,East,93,7.0,16.0,72,0.00,,,0.00,meteohub,2013-11-05 04:03:00,
2013-11-04 23:08:00,76.6,66.9,30.07,North,5,2.0,10.0,72,0.00,,,0.00,meteohub,2013-11-05 04:08:00,
2013-11-04 23:13:00,76.5,66.7,30.06,NNE,25,4.0,10.0,72,0.00,,,0.00,meteohub,2013-11-05 04:13:00,
2013-11-04 23:18:00,76.5,66.7,30.06,NNE,24,5.0,10.0,72,0.00,,,0.00,meteohub,2013-11-05 04:18:00,
2013-11-04 23:23:00,76.5,66.4,30.06,NNE,32,2.0,10.0,71,0.00,,,0.00,meteohub,2013-11-05 04:23:00,
2013-11-04 23:28:00,76.5,66.7,30.06,ESE,119,9.0,14.0,72,0.00,,,0.00,meteohub,2013-11-05 04:28:00,
2013-11-04 23:33:00,76.5,66.7,30.06,ENE,78,9.0,14.0,72,0.00,,,0.00,meteohub,2013-11-05 04:33:00,
2013-11-04 23:38:00,76.5,67.1,30.06,East,96,6.0,14.0,73,0.00,,,0.00,meteohub,2013-11-05 04:38:00,
2013-11-04 23:43:00,76.5,66.7,30.06,NE,34,4.0,13.0,72,0.00,,,0.00,meteohub,2013-11-05 04:43:00,
2013-11-04 23:48:00,76.5,66.7,30.06,NE,42,7.0,14.0,72,0.00,,,0.00,meteohub,2013-11-05 04:48:00,
2013-11-04 23:53:00,76.5,67.1,30.06,ESE,117,4.0,14.0,73,0.00,,,0.00,meteohub,2013-11-05 04:53:00,
2013-11-04 23:58:00,76.5,67.1,30.06,NE,53,3.0,14.0,73,0.00,,,0.00,meteohub,2013-11-05 04:58:00,